Volver al catálogo

CZ-6A R/B

ActivoPO
NORAD 61570·ROCKET BODY·🇨🇳 China

Lanzado Oct 15, 2024 desde Taiyuan Satellite Launch Center

Loading…

Próximos Pases (próximas 24 horas)

TLE

ActualizadoSource: Space-Track

Época: Sep 14, 2026, 21:03 UTC

1 61570U 24185U   26257.87732222  .00000256  00000-0  55999-4 0  9998
2 61570  89.0243  44.6033 0096004 248.7389 110.3546 14.51824178100672

Sigue CZ-6A R/B en tiempo real con AllMySat

Download on the App Store